McCook, NE

10:07 PM CST on February 17, 2018 (GMT -0600)
McCook Municipal

Weather History for KMCK - August, 2013

Change the Weather History Date:

Friday, August 9, 2013

  Actual Average Record
Temperature  
Mean Temperature 72 °F 75 °F  
Max Temperature 86 °F 88 °F 109 °F (1969)
Min Temperature 57 °F 61 °F 50 °F (1932)
Cooling Degree Days 6    
Growing Degree Days 20 (Base 50)    
Moisture  
Dew Point 58 °F    
Average Humidity 71    
Maximum Humidity 100    
Minimum Humidity 34    
Precipitation  
Precipitation 0.01 in 0.11 in 2.10 in (2011)
Month to date precipitation 0.61 1.08  
Year to date precipitation 8.29 15.65  
Sea Level Pressure  
Sea Level Pressure 30.09 in    
Wind  
Wind Speed 3 mph (SSW)    
Max Wind Speed 8 mph    
Max Gust Speed -    
Visibility 8 miles    
Events      
T = Trace of Precipitation, MM = Missing Value Source: NWS Daily Summary

Daily Weather History Graph

Daily Weather History Graph

Search for Another Location

Airport or City:

Trip Planner

Search our weather history database for the weather conditions in past years. The results will help you decide how hot, cold, wet, or windy it might be!

Date:

Astronomy

Aug. 09, 2013 Rise Set
Actual Time 6:48 AM CDT 8:46 PM CDT
Civil Twilight 6:18 AM CDT 9:16 PM CDT
Nautical Twilight 5:42 AM CDT 9:52 PM CDT
Astronomical Twilight 5:03 AM CDT 10:31 PM CDT
Moon 9:36 AM CDT (8/9) 9:57 PM CDT (8/9)
Length of Visible Light 14h 57m
Length of Day
13h 58m
Waxing Crescent, 8% of the Moon is Illuminated
Aug 9
Waxing Crescent
Aug 14
First Quarter
Aug 20
Full
Aug 28
Last Quarter
Sep 5
New

Hourly Weather History & Observations

Time (CDT) Temp. Heat Index Dew Point Humidity Pressure Visibility Wind Dir Wind Speed Gust Speed Precip Events Conditions
12:53 AM 64.0 °F - 61.0 °F 90% 30.06 in 10.0 mi Calm Calm - N/A   Clear
1:53 AM 64.9 °F - 61.0 °F 87% 30.05 in 10.0 mi SSE 3.5 mph - N/A   Clear
2:53 AM 61.0 °F - 59.0 °F 93% 30.05 in 7.0 mi Calm Calm - N/A   Clear
3:53 AM 59.0 °F - 57.9 °F 96% 30.06 in 6.0 mi Calm Calm - N/A   Clear
4:53 AM 57.9 °F - 57.0 °F 97% 30.07 in 0.8 mi Calm Calm - N/A   Clear
5:27 AM 57.2 °F - 57.2 °F 100% 30.12 in 2.0 mi WNW 3.5 mph - 0.01 in   Clear
5:35 AM 59.0 °F - 57.2 °F 94% 30.12 in 4.0 mi West 4.6 mph - 0.01 in   Clear
5:53 AM 57.9 °F - 57.0 °F 97% 30.07 in 4.0 mi West 3.5 mph - 0.01 in   Clear
6:53 AM 57.9 °F - 57.0 °F 97% 30.09 in 3.0 mi West 3.5 mph - N/A   Clear
7:53 AM 60.1 °F - 57.9 °F 93% 30.11 in 3.0 mi WNW 3.5 mph - N/A   Clear
8:23 AM 60.8 °F - 59.0 °F 94% 30.15 in 2.5 mi Calm Calm - N/A   Clear
8:32 AM 60.8 °F - 60.8 °F 100% 30.16 in 3.0 mi Calm Calm - N/A   Clear
8:53 AM 63.0 °F - 61.0 °F 93% 30.11 in 4.0 mi Calm Calm - N/A   Clear
9:53 AM 70.0 °F - 62.1 °F 76% 30.12 in 10.0 mi West 4.6 mph - N/A   Clear
10:53 AM 73.0 °F - 61.0 °F 66% 30.11 in 10.0 mi Calm Calm - N/A   Clear
11:53 AM 77.0 °F - 57.0 °F 50% 30.10 in 10.0 mi Variable 3.5 mph - N/A   Clear
12:53 PM 79.0 °F - 55.9 °F 45% 30.10 in 10.0 mi ESE 5.8 mph - N/A   Clear
1:53 PM 82.0 °F 81.4 °F 55.0 °F 39% 30.08 in 10.0 mi SE 6.9 mph - N/A   Clear
2:53 PM 84.9 °F 83.3 °F 54.0 °F 34% 30.08 in 10.0 mi Variable 6.9 mph - N/A   Partly Cloudy
3:53 PM 82.9 °F 81.9 °F 54.0 °F 37% 30.08 in 10.0 mi Variable 3.5 mph - N/A   Clear
4:53 PM 82.9 °F 81.8 °F 53.1 °F 36% 30.06 in 10.0 mi NE 3.5 mph - N/A   Clear
5:53 PM 84.9 °F 83.3 °F 54.0 °F 34% 30.05 in 10.0 mi East 6.9 mph - N/A   Scattered Clouds
6:53 PM 84.0 °F 82.9 °F 55.0 °F 37% 30.06 in 10.0 mi South 4.6 mph - N/A   Mostly Cloudy
7:53 PM 79.0 °F - 55.9 °F 45% 30.07 in 10.0 mi SSE 5.8 mph - N/A   Mostly Cloudy
8:53 PM 75.0 °F - 57.9 °F 55% 30.10 in 10.0 mi South 3.5 mph - N/A   Scattered Clouds
9:53 PM 71.1 °F - 59.0 °F 66% 30.13 in 10.0 mi SSE 5.8 mph - N/A   Partly Cloudy
10:53 PM 68.0 °F - 59.0 °F 73% 30.14 in 10.0 mi South 5.8 mph - N/A   Clear
11:53 PM 66.9 °F - 59.0 °F 76% 30.14 in 10.0 mi SSW 8.1 mph - N/A   Clear